Preview of NWS' New Version of Forecast
This preview is not operational and should not be used for support decisions.

Regional Weather Roundup (RWR)

Issued by National Weather Service (NWS)

                            
000
ASUS46 KSEW 230510
RWRWA 

WASHINGTON REGIONAL WEATHER ROUNDUP
NATIONAL WEATHER SERVICE SEATTLE WA
1000 PM PDT MON APR 22 2019

NOTE:"FAIR" INDICATES FEW OR NO CLOUDS BELOW 12,000 FEET WITH NO 
SIGNIFICANT WEATHER AND/OR OBSTRUCTIONS TO VISIBILITY.

WAZ507-509-555>559-230600-
SEATTLE, TACOMA, EVERETT, AND VICINITY
  
CITY           SKY/WX    TMP DP  RH WIND       PRES   REMARKS
EVERETT        CLOUDY    51  48  89 S13       30.20F                  
BOEING FIELD   CLOUDY    53  48  83 S10       30.21S                  
RENTON         CLOUDY    53  51  93 SE5       30.21S                  
SEATAC AIRPORT CLOUDY    51  49  92 SW9       30.21S                  
JBLM-MCCHORD   CLOUDY    52  52 100 SW7       30.22S                  
PUYALLUP       CLOUDY    52  52 100 W5        30.21F                  
BREMERTON      CLOUDY    49  46  90 SW13      30.21S                  
JBLM-FT LEWIS  CLOUDY    51  51 100 SW3       30.22S                  
TACOMA NARROWS CLOUDY    50  48  93 SW6       30.21F                  
$$
 
WAZ001-503-506-510-514-515-230600-
NORTH INTERIOR
  
CITY           SKY/WX    TMP DP  RH WIND       PRES   REMARKS
BELLINGHAM     CLOUDY    52  46  80 S7        30.19S                  
FRIDAY HARBOR  CLOUDY    51  46  83 NE3       30.19F                  
EASTSOUND      CLOUDY    52  48  87 SE5       30.18F                  
PORT ANGELES   CLOUDY    47  46  97 CALM      30.19F                  
EDIZ HOOK      FAIR      47  46  95 SW8       30.19S                  
PORT TOWNSEND  CLOUDY    52  46  82 CALM      30.18S                  
NAS WHIDBEY    CLOUDY    55  47  74 SE14      30.22S                  
ARLINGTON      CLOUDY    53  48  83 S9        30.21S                  
BURLINGTON       N/A    N/A N/A N/A MISG        N/A                   
$$
 
WAZ020-022-039-040-504-511-512-230600-
SOUTHWEST INTERIOR
  
CITY           SKY/WX    TMP DP  RH WIND       PRES   REMARKS
SHELTON        CLOUDY    49  46  90 W5        30.21F FOG              
OLYMPIA        CLOUDY    50  48  93 SW5       30.23S                  
CHEHALIS       CLOUDY    52  52 100 S7        30.23S                  
KELSO          LGT RAIN  53  52  96 CALM      30.25F                  
VANCOUVER      CLOUDY    56  53  90 W3        30.24F                  
SCAPPOOSE, OR  CLOUDY    57  53  86 CALM      30.24S                  
PORTLAND, OR   CLOUDY    57  52  83 NW5       30.24F                  
$$
 
WAZ021-516-517-230600-
WASHINGTON COAST
  
CITY           SKY/WX    TMP DP  RH WIND       PRES   REMARKS
FORKS          CLOUDY    49  47  93 VRB5      30.18S FOG              
HOQUIAM        CLOUDY    49  49 100 E3        30.23S FOG              
ASTORIA, OR    LGT RAIN  50  46  86 SE3       30.24S FOG              
$$
 
WAZ019-023-024-040-567>569-230600-
CASCADE MOUNTAINS AND COLUMBIA GORGE
  
CITY           SKY/WX    TMP DP  RH WIND       PRES   REMARKS
STAMPEDE PASS  FOG       42  40  92 NW8       30.16F VSB 1/4          
TROUTDALE, OR  CLOUDY    58  50  75 CALM      30.24F                  
HOOD RIVER, OR MOCLDY    55  45  67 MISG      30.22S                  
THE DALLES, OR CLOUDY    60  43  53 W10       30.19R                  
$$

WAZ026-027-041>044-520-521-230600-
EAST SLOPES
  
CITY           SKY/WX    TMP DP  RH WIND       PRES   REMARKS
OMAK           MOCLDY    60  39  45 N5        30.04R                  
WENATCHEE      MOCLDY    56  40  55 NW15      30.10S                  
ELLENSBURG     MOCLDY    53  42  66 NW16      30.14R                  
YAKIMA         CLOUDY    61  43  51 N5        30.13R                  
SUNNYSIDE ARPT CLOUDY    62  48  60 CALM      30.12R                  
YAKIMA TC      MOCLDY    56  43  62 E6        30.12R                  
$$

WAZ028-034-035-230600-
COLUMBIA BASIN
  
CITY           SKY/WX    TMP DP  RH WIND       PRES   REMARKS
EPHRATA        CLOUDY    61  41  47 NW15      30.08R                  
MOSES LAKE     CLOUDY    62  45  53 W6        30.09R                  
PASCO          CLOUDY    67  49  52 SW3       30.11R                  
RICHLAND ARPT  LGT RAIN  64  51  60 SW3       30.11                   
HERMISTON, OR  LGT RAIN  63  45  51 SW13      30.14R                  
$$

WAZ036>038-230600-
NORTHEAST WASHINGTON
  
CITY           SKY/WX    TMP DP  RH WIND       PRES   REMARKS
SPOKANE GEIGER LGT RAIN  56  42  59 S13       30.11R                  
SPOKANE FELTS  LGT RAIN  54  45  71 CALM      30.12R                  
FAIRCHILD AFB  LGT RAIN  54  46  76 S7        30.10S                  
COEURDALENE,ID LGT RAIN  54  42  64 W3        30.13R                  
DEER PARK      LGT RAIN  55  40  56 S8        30.11R                  
$$

WAZ029>033-230600-
SOUTHEAST WASHINGTON
  
CITY           SKY/WX    TMP DP  RH WIND       PRES   REMARKS
PULLMAN        CLOUDY    58  39  49 SW5       30.16S                  
LEWISTON, ID   CLOUDY    62  44  51 S5        30.13R                  
WALLA WALLA    CLOUDY    65  43  44 S12       30.15R                  
PENDLETON, OR  CLOUDY    61  43  51 W16       30.16R                  
$$